GLOBALSTAR M073 [+]

Last updated on Fri Dec 29 2023 00:02:56 GMT+0000 (Coordinated Universal Time)

1 37193U 10054F 23362.14801250 -.00000074 00000+0 16524-3 0 9992 2 37193 52.0074 290.1124 0000670 52.5395 55.2368 12.62270696610067
UTC large
Height (km)
Speed (km/s)
/
Latitude / Longitude
Inclination (degrees)
Orbital Period (minutes)
Azimuth
Elevation
Range (km)
Doppler Factor

Next 0 passes for location: London (51.5072 / 0.1276)

Sorry there are no passes over London.